STARLINK-32038, 60281

Orbit data source: Space-Track

STARLINK-32038, 60281 is a payload satellite owned by SpaceX/Seattle (US) in LEO that was launched on Sun, 28 Jul 2024 UTC via an FALCON 9 launch vehicle from the Air Force Eastern Test Range (AFETR). Payload-class satellites include a variety of spacecraft equipped with specific instruments for various scientific and technological missions. These include communications satellites like Starlink; space stations such as the ISS; scientific satellites like the Hubble; Earth observation satellites from companies like Planet Labs, Umbra, and HawkEye 360; GPS; miniature CubeSats for education and research; and military/defense satellites.

Loading next visibility...
Identifier
60281, 2024-132D
Orbit
LEO
Last TLE update
12 hours ago
Origin
Manufacturer
SpaceX/Seattle
Mission
Operational spacecraft
Bus & Motor
STARLINK V2M, Unknown motor
Mass
730 kg wet, ~700 kg dry
Launch date (UTC)
2024-07-28 (11 months ago)
Launch vehicle
FALCON 9
Launch site
Air Force Eastern Test Range (AFETR)
Object type
Payload
Rocket body
Debris
Shape & HBR
Unknown
Radar Cross Section
Large (>1 m²)

Expand to show TLE details & history

TLE from 12 hours ago
0 STARLINK-32038
1 60281U 24132D   25181.91012167 -.00000059  00000-0  10120-4 0  9996
2 60281  53.1596 141.7932 0001233  85.5366 274.5776 15.30197918 53018
Epoch: 2025-06-30T21:50Z
TLE epoch observation values (Epoch: 2025-06-30T21:50:34.512Z)
Latitude
0.00002°
Longitude
-105.06374°
Altitude
476.054 km
Speed
7.629 km/s
True Right ascension
09h 27m 10s
True Declination
0° 00' 00"
Sunlit
Object was in daylight at epoch
Visualization orbit readout
Latitude
17.19741°
Longitude
59.34646°
Altitude
475.229 km
Speed
7.631 km/s
Apparent Right ascension
18h 32m 17s
Apparent Declination
-46° 12' 09"
Sunlit
Object is in full shadow
Visualization observer readout
Local Sidereal Time
21:08:34
Azimuth
205.9° SW
Elevation
-2.925°
Doppler factor
1
Orbital elements
Apogee altitude
476.323 km
Perigee altitude
474.633 km
Semi-major axis
6,853.615 km
Eccentricity
0.00012
Inclination
53.1596°
RAAN
141.7932°
Arg. of periapsis
85.5366°
True anomaly
Unknown
Mean anomaly
274.5776°
Eccentric anomaly
Unknown
Mean motion
3.82528 °/min
Orbital period
94.11 mins
BSTAR
0.00001012
Loading maneuver chart data...
Loading SW <> Apogee altitude chart data...
Loading historical data...
Loading historical data...
Loading historical data...
Loading historical data...
Loading historical data...
Loading historical data...
Loading historical data...

STARLINK-32038 Visibility forecast

Observer location: undefined°, undefined°

Span
Click to sort rows by Start time (UTC) header in descending order
Start Az.
Max El. time (UTC)
Max El. Az.
Max El.
End time (UTC)
End Az.
6 mins2025-07-01 23:04:16.960Z188.916° SSW2025-07-01 23:07:16.960Z133.397° SE23.946°2025-07-01 23:10:16.960Z74.334° E
5 mins2025-07-02 00:43:16.960Z272.386° WNW2025-07-02 00:45:16.960Z332.571° NNW31.158°2025-07-02 00:48:16.960Z34.883° NE
4 mins2025-07-02 05:40:16.960Z344.319° N2025-07-02 05:42:16.960Z35.493° NE25°2025-07-02 05:44:16.960Z79.938° E
5 mins2025-07-02 07:18:16.960Z281.663° WNW2025-07-02 07:20:16.960Z216.045° SW32.48°2025-07-02 07:23:16.960Z157.179° SSE
|